Location: Vancouver
(49.2827°N, 123.1207°W)
Time: 02:54:11
(UTC-08:00)

ISS - Pass Details

Date: 29 September 2023
Orbit: 416 x 417 km, 51.6° (Epoch: 30 November)

Event Time Altitude Azimuth Distance (km) Brightness Sun altitude
Rises 21:07:02 0° 285° (WNW) 2,364 1.5 -21.8°
Reaches altitude 10° 21:09:30 10° 268° (W) 1,494 -0.1 -22.2°
Enters shadow 21:11:57 20° 221° (SW) 1,039 -1.6 -22.6°
